User: anonymous   Login
Location: Unspecified
(0.0000°N, 0.0000°E)
Time: 13:04:26
(UTC+00:00)
Language:

SAUDISAT 4 - Orbit

View from above orbital plane
View from above orbital plane
View from above satellite
View from above satellite

Ground track
Ground track

The orbit data is extracted from the following two-line orbital elements,

1 40016U 14033G   18347.64506755 +.00000015 +00000-0 +96126-5 0  9998
2 40016 097.7877 222.3082 0047757 332.4965 027.3718 14.75216111241407
Epoch (UTC): 13 December 2018 15:28:53
Eccentricity: 0.0047757
inclination: 97.7877°
perigee height: 611 km
apogee height: 678 km
right ascension of ascending node: 222.3082°
argument of perigee: 332.4965°
revolutions per day: 14.75216111
mean anomaly at epoch: 27.3718°
orbit number at epoch: 24140

The dashed part of the orbit path shows where the satellite is in the earth's shadow,  

DLR